Regional Weather Roundup
Issued by NWS New Orleans/Baton Rouge, LA

Home | Current Version | Previous Version | Graphics & Text | Print | Product List | Glossary On
Versions: 1 2 3 4 5 6 7 8 9 10 11 12 13 14 15 16 17 18 19 20 21 22 23 24 25 26 27 28 29 30 31 32 33 34 35 36 37 38 39 40 41 42 43 44 45 46 47 48 49 50
119
ASUS44 KLIX 010201
RWRLIX
NEW ORLEANS REGIONAL WEATHER ROUNDUP
NATIONAL WEATHER SERVICE NEW ORLEANS LA
900 PM CDT SUN AUG 31 2014

NOTE: "FAIR" INDICATES FEW OR NO CLOUDS BELOW 12,000 FEET WITH NO
      SIGNIFICANT WEATHER AND/OR OBSTRUCTIONS TO VISIBILITY.
      SKY/WX - SKY CONDITION AND SIGNIFICANT WEATHER.
      TMP - AIR TEMPERATURE.     DP    - DEWPOINT TEMPERATURE.
      RH  - RELATIVE HUMIDITY.   PRES  - PRESSURE.
      HI  - HEAT INDEX.          WCI   - WIND CHILL INDEX.

*  THESE STATIONS ARE NOT NWS OR FAA STATIONS AND ARE NOT UNDER
   NWS QUALITY CONTROL.

LAZ038-040-048-061>063-065>067-069-010300-
SOUTHEAST LOUISIANA

CITY           SKY/WX    TMP DP  RH WIND       PRES   REMARKS
N.O. AUDUBON   NOT AVBL
N.O. INTL ARPT MOCLDY    83  75  77 SE7       30.04R
N.O. LAKEFRONT PTCLDY    83  77  82 SE9       30.04S
N.O. DOWNTOWN*   N/A     84  73  70 SE3       30.05R
SLIDELL        PTCLDY    81  75  82 SE3       30.05R
BATON ROUGE    MOCLDY    82  72  71 SE6       30.03R
BOOTHVILLE     CLEAR     84  77  79 SE6       30.06R
BELLE CHASSE   CLEAR     83  75  77 SE6       30.03S
BOGALUSA*        N/A     82  73  73 SE3       30.07S
GALLIANO*      NOT AVBL
NEW ROADS*     CLOUDY    80  76  86 E3        30.03R
GONZALES*        N/A     78  78 100 CALM      30.03S
HAMMOND*       NOT AVBL
HOUMA*         PTCLDY    80  74  84 SE3       30.04R
PORT FOURCHON* NOT AVBL

$$

MSZ070-080>082-010300-
SOUTHERN MISSISSIPPI

CITY           SKY/WX    TMP DP  RH WIND       PRES   REMARKS
MCCOMB         PTCLDY    76  72  87 SE3       30.06R
GULFPORT       PTCLDY    84  75  74 S6        30.06R
BILOXI         NOT AVBL
PASCAGOULA     PTCLDY    77  75  93 CALM      30.07S
STENNIS ARPT*  CLEAR    N/A N/A N/A SE3       30.06R

$$

COASTAL OBSERVATIONS
LAKE AND NEARSHORE STATIONS

STATION/POSITION TIME  TEMP    WIND        PRES    WAVE
                       AIR SEA DIR/SP/G            HT/PER
                 (UTC) (F)     (DEG/KT/KT) (MB)    (FT/S)
PASCAGOULA       0100   85     140/  7/  9 1017.6
WAVELAND YACHT   0100   85     170/  9/ 12 1017.1
GRAND ISLE       0100   85 85  130/  9/ 16 1017.7
SOUTHWEST PASS   0100   86 91  140/ 13/ 16 1017.7
NEW CANAL        0100   85 82  150/  3/  7 1017.6
SHELL BEACH      0100   84 81  120/  8/  9 1017.3

OFFSHORE STATIONS

STATION/POSITION TIME  TEMP    WIND        PRES    WAVE
                       AIR SEA DIR/SP/G            HT/PER
                 (UTC) (F)     (DEG/KT/KT) (MB)    (FT/S)

$$




USA.gov is the U.S. government's official web portal to all federal, state and local government web resources and services.